Location: Ch�risy
(50.2331°N, 2.9131°E)
Time: 02:46:19
(UTC+00:00)

COSMOS 2455 - Pass Details

Date: 17 January 2021
Orbit: 901 x 908 km, 67.1° (Epoch: 24 February)

Event Time Altitude Azimuth Distance (km) Brightness Sun altitude
Rises 17:30:17 0° 170° (S) 3,519 6.0 -11.3°
Reaches altitude 10° 17:33:16 10° 157° (SSE) 2,584 5.2 -11.8°
Maximum altitude 17:37:49 23° 107° (ESE) 1,829 4.0 -12.5°
Enters shadow 17:40:24 18° 74° (ENE) 2,105 4.1 -12.9°
